Wind_Speed
22 22 22 22 23 24 24 24 24 25 25 25 25 25 25 25 26 26 27 28 28 29 30 30 30 29 29 29 29 29 30 31 31 31 31 31 31 31
21 21 21 22 23 23 24 24 24 24 24 24 24 24 24 23 24 25 26 26 26 27 28 29 29 29 29 29 29 28 29 30 31 31 30 30 30 30
21 21 22 22 22 23 23 23 23 23 24 24 24 23 23 23 23 23 23 24 24 25 25 26 27 28 28 28 28 28 29 29 29 29 29 29 29 30
22 22 22 22 21 21 21 22 23 23 23 23 22 22 22 22 22 22 22 23 23 23 24 24 25 26 26 27 27 27 27 27 28 29 29 30 30 30
22 22 21 21 21 21 22 22 23 23 22 21 20 20 21 21 21 21 21 21 21 21 22 23 23 24 25 25 26 26 26 26 27 28 29 29 30 30
21 21 20 20 20 21 21 22 22 22 21 20 20 20 20 20 20 20 19 19 19 19 20 21 21 22 23 24 25 25 26 26 26 27 27 27 28 28
20 19 19 19 19 20 20 20 20 20 19 20 20 19 19 19 19 19 19 19 19 19 20 20 20 20 21 22 23 24 24 25 25 26 25 25 26 26
19 19 18 18 19 19 19 18 18 17 17 17 17 18 18 19 19 19 19 19 19 19 20 20 20 20 20 20 21 22 22 23 24 25 25 26 26 26
18 18 18 17 17 17 17 17 17 16 16 16 16 17 17 18 18 19 19 19 18 18 19 19 20 20 20 20 21 21 22 22 22 23 24 24 25 25
17 16 16 16 17 17 17 16 15 15 15 15 15 16 16 16 17 17 18 18 18 17 18 18 18 19 19 20 20 21 22 22 22 23 23 24 24 25
16 16 16 16 16 16 15 14 13 12 12 13 13 14 15 15 15 16 17 18 18 18 18 18 18 19 19 20 20 21 21 22 22 23 23 24 24 24
16 16 16 16 15 14 14 13 12 11 11 11 12 12 13 14 14 15 16 17 18 18 18 18 18 19 19 20 20 20 21 22 22 23 23 24 24 25
16 16 16 15 14 13 12 12 11 10 10 10 11 11 11 12 13 14 14 16 17 17 17 18 19 19 20 20 20 21 21 22 23 23 24 24 25 25
16 15 14 14 13 12 12 11 10 10 10 9 10 10 11 11 11 12 13 15 16 16 17 17 19 19 20 21 21 21 22 23 23 23 24 25 25 25
15 15 14 13 13 12 12 12 11 10 10 10 10 10 11 11 12 13 15 16 17 17 17 17 18 19 20 20 21 21 22 22 23 23 24 24 24 24
15 15 14 14 13 12 12 11 11 11 11 11 12 12 12 12 13 14 15 16 16 17 18 19 19 19 19 20 20 21 22 22 22 22 22 22 22 23
16 15 15 14 13 13 12 11 11 12 12 12 13 13 13 13 13 14 15 16 17 18 18 20 20 20 20 20 21 21 22 21 22 23 22 22 23 23
15 15 15 14 14 14 13 13 14 14 13 14 14 14 14 14 14 14 15 15 16 17 18 19 19 19 20 20 21 21 21 21 22 22 22 23 23 23
16 16 15 15 15 15 15 15 15 15 15 15 16 16 16 15 15 15 16 16 16 17 18 19 19 20 20 21 21 21 21 21 22 22 22 22 23 23
18 18 16 16 16 16 16 16 16 17 17 17 16 16 16 16 17 17 17 17 17 18 18 18 19 19 20 20 21 21 21 21 21 21 22 22 22 23
19 18 18 19 18 17 16 16 17 18 18 18 18 18 18 18 18 18 18 17 18 18 17 17 18 19 20 20 20 20 20 20 21 22 23 23 23 24
20 20 20 20 19 18 18 18 18 18 19 19 19 19 19 19 19 19 18 18 19 18 18 18 18 19 19 19 19 20 20 21 22 23 23 23 23 24
21 21 22 21 21 20 20 20 19 19 20 20 20 21 21 21 20 20 20 20 20 20 20 20 20 20 20 20 20 21 21 21 22 23 23 24 25 26
Wind_Direction
298 296 293 289 285 284 284 283 280 277 277 276 273 270 270 268 266 265 263 264 264 262 259 257 256 256 255 254 254 254 251 251 251 252 252 254 255 256
300 298 295 292 288 285 285 283 281 280 278 276 273 269 268 269 267 265 263 262 263 262 258 257 258 258 257 256 256 256 256 254 252 253 254 254 255 256
303 301 297 293 291 288 286 284 282 279 278 275 273 271 269 268 268 267 265 263 262 261 259 258 258 258 258 257 256 256 256 254 254 254 253 254 255 256
305 302 300 297 293 291 289 286 284 281 278 273 272 271 269 269 268 268 266 264 262 260 258 256 256 256 257 256 256 257 257 257 257 255 255 255 256 257
305 304 302 299 296 293 291 288 285 282 277 273 271 270 269 269 267 267 267 264 261 260 259 258 257 256 255 254 254 256 258 260 259 258 259 259 258 259
307 306 303 301 297 294 292 289 286 282 278 274 272 270 269 268 267 266 264 262 261 260 259 259 259 258 256 254 253 254 257 259 259 260 260 260 261 261
309 308 305 304 301 298 296 293 289 285 282 276 272 269 269 268 267 264 262 261 260 259 260 259 260 259 257 256 253 254 257 259 260 260 258 260 261 260
316 314 311 308 306 304 301 296 292 289 284 278 274 270 269 268 267 264 262 259 259 259 260 259 259 258 256 257 256 255 257 259 260 260 258 260 262 261
320 319 316 314 313 311 307 302 296 290 285 282 276 273 270 269 267 264 262 260 260 262 262 262 260 256 256 256 256 257 258 259 260 259 259 260 261 261
322 321 321 319 316 313 310 305 298 293 287 282 277 274 272 271 269 265 263 261 259 260 262 263 260 258 258 258 258 258 259 260 259 259 260 260 261 261
323 323 324 323 319 318 316 312 306 299 292 285 282 280 277 276 272 267 265 263 260 260 261 260 260 260 260 260 260 260 260 260 260 260 260 261 262 263
327 326 326 325 324 323 324 322 316 310 304 299 291 285 281 280 279 274 269 266 264 263 262 261 261 261 262 263 262 263 262 261 261 261 261 260 261 262
333 331 331 332 331 328 327 325 322 318 311 306 302 295 290 287 280 275 273 270 267 267 267 266 264 265 265 265 266 267 266 263 262 263 263 264 264 263
337 338 337 336 334 332 331 329 326 323 319 316 309 304 298 291 283 278 278 274 270 272 272 272 270 269 269 266 267 268 269 267 266 265 266 266 266 266
341 343 343 342 339 336 335 333 329 325 321 318 315 310 303 297 289 283 281 280 277 276 274 272 273 274 271 269 268 269 270 270 269 268 268 267 267 266
346 346 346 344 342 340 339 336 333 330 325 321 317 312 307 302 296 291 287 283 278 277 275 273 274 273 271 271 270 271 271 270 269 269 268 267 268 269
343 341 340 339 339 338 334 332 328 327 327 324 321 317 311 306 303 298 293 288 283 281 279 276 276 275 272 272 272 273 272 271 271 270 268 269 269 269
338 338 338 338 335 332 330 330 329 326 323 322 321 319 316 311 306 303 301 298 294 287 284 280 276 275 275 274 274 274 273 273 274 273 270 269 270 270
337 337 336 335 333 330 327 325 324 324 322 319 317 314 312 310 306 304 303 301 300 296 290 284 280 278 276 274 275 275 274 273 273 274 274 274 274 273
335 334 332 331 329 327 326 326 323 320 319 319 318 316 314 312 310 306 303 301 300 298 292 287 285 282 279 277 276 275 274 274 273 274 276 277 277 276
337 335 332 330 327 324 322 323 321 319 317 316 317 315 311 310 310 309 307 304 302 300 297 293 289 285 281 280 279 278 276 273 273 273 275 277 278 279
335 334 333 332 328 323 321 321 319 319 318 316 314 314 312 310 309 308 307 307 306 302 299 296 292 290 287 284 282 281 279 278 276 275 275 276 277 279
334 333 332 331 328 325 323 322 320 318 316 315 314 313 313 312 310 308 307 306 305 302 300 298 294 292 290 289 286 282 281 280 279 278 278 278 278 280
Height
5739 5737 5736 5735 5734 5733 5732 5732 5731 5731 5731 5730 5730 5730 5730 5731 5732 5733 5734 5736 5737 5738 5740 5742 5744 5746 5748 5750 5752 5754 5757 5759 5761 5763 5765 5767 5768 5770
5734 5732 5730 5729 5727 5727 5726 5725 5724 5724 5723 5723 5723 5723 5723 5724 5725 5726 5726 5728 5729 5730 5732 5734 5736 5738 5740 5742 5744 5747 5749 5751 5753 5755 5756 5758 5760 5762
5729 5727 5724 5723 5721 5720 5719 5718 5718 5717 5717 5716 5716 5716 5716 5717 5717 5718 5719 5720 5721 5723 5724 5726 5728 5730 5732 5734 5737 5739 5741 5743 5745 5747 5748 5750 5752 5753
5724 5721 5719 5717 5716 5714 5713 5712 5711 5710 5710 5710 5710 5709 5709 5710 5710 5711 5712 5713 5714 5715 5717 5719 5720 5722 5724 5727 5729 5731 5733 5735 5737 5738 5740 5742 5743 5744
5719 5717 5714 5712 5710 5708 5707 5706 5704 5703 5703 5703 5703 5703 5703 5703 5704 5704 5705 5706 5707 5708 5710 5711 5713 5715 5717 5719 5721 5723 5725 5727 5728 5730 5731 5733 5734 5736
5714 5711 5709 5707 5705 5703 5701 5699 5698 5697 5696 5696 5697 5697 5697 5697 5698 5698 5699 5700 5701 5702 5703 5704 5706 5707 5709 5711 5713 5715 5717 5719 5720 5722 5723 5724 5725 5727
5709 5706 5704 5702 5699 5697 5696 5694 5692 5691 5690 5690 5690 5691 5691 5691 5692 5693 5694 5694 5695 5696 5697 5698 5700 5701 5702 5704 5705 5707 5709 5710 5712 5714 5715 5716 5717 5719
5705 5702 5700 5697 5695 5693 5690 5688 5687 5686 5685 5685 5685 5685 5685 5685 5686 5687 5688 5689 5690 5691 5691 5692 5693 5695 5696 5697 5698 5700 5701 5703 5704 5705 5707 5708 5709 5711
5701 5699 5696 5693 5691 5688 5686 5684 5682 5681 5680 5680 5680 5680 5680 5680 5680 5681 5682 5682 5683 5684 5685 5686 5687 5688 5690 5691 5692 5693 5695 5695 5697 5698 5699 5700 5701 5702
5698 5696 5693 5690 5687 5685 5682 5680 5678 5676 5675 5675 5675 5675 5675 5675 5675 5676 5676 5677 5678 5679 5680 5681 5682 5683 5684 5685 5686 5687 5688 5689 5690 5691 5692 5693 5694 5695
5696 5693 5690 5687 5685 5682 5679 5677 5675 5673 5672 5671 5670 5670 5670 5670 5670 5671 5671 5672 5673 5674 5675 5676 5677 5678 5678 5679 5679 5680 5681 5682 5683 5684 5685 5686 5686 5687
5693 5690 5688 5685 5682 5679 5677 5674 5672 5671 5669 5668 5667 5666 5666 5666 5665 5666 5667 5667 5668 5669 5669 5670 5671 5672 5673 5673 5673 5674 5674 5675 5676 5677 5677 5678 5679 5679
5691 5688 5685 5682 5679 5677 5675 5672 5670 5669 5667 5666 5665 5664 5663 5662 5662 5662 5663 5663 5664 5664 5664 5665 5665 5666 5666 5667 5667 5667 5668 5668 5669 5669 5670 5670 5671 5671
5690 5687 5683 5681 5678 5676 5673 5671 5669 5667 5665 5664 5662 5661 5660 5660 5659 5659 5659 5659 5659 5659 5659 5660 5660 5660 5660 5661 5661 5661 5661 5661 5662 5662 5662 5662 5663 5663
5688 5685 5682 5679 5677 5674 5672 5670 5668 5666 5664 5662 5661 5659 5658 5657 5656 5656 5655 5655 5655 5654 5654 5654 5654 5654 5654 5654 5654 5654 5655 5655 5654 5654 5655 5655 5655 5655
5687 5684 5681 5678 5676 5673 5671 5669 5666 5664 5662 5661 5659 5657 5655 5654 5653 5652 5651 5650 5650 5650 5649 5648 5648 5648 5648 5648 5647 5647 5647 5647 5647 5647 5647 5647 5647 5647
5686 5683 5680 5677 5675 5672 5670 5668 5665 5663 5661 5659 5656 5654 5653 5651 5650 5648 5647 5646 5645 5644 5644 5643 5642 5641 5641 5641 5640 5640 5640 5639 5639 5639 5639 5639 5639 5639
5685 5682 5679 5676 5673 5671 5668 5666 5664 5661 5659 5656 5654 5652 5650 5648 5646 5645 5643 5641 5640 5638 5637 5636 5635 5635 5634 5634 5634 5633 5633 5632 5632 5632 5631 5631 5632 5632
5683 5680 5677 5674 5672 5669 5666 5664 5662 5659 5656 5654 5651 5649 5646 5644 5642 5641 5639 5637 5635 5633 5631 5630 5629 5628 5627 5627 5627 5626 5625 5625 5625 5625 5624 5624 5624 5623
5682 5679 5675 5672 5670 5667 5664 5661 5659 5656 5654 5651 5648 5645 5643 5640 5638 5636 5634 5632 5630 5627 5626 5624 5622 5621 5620 5620 5619 5619 5618 5618 5617 5617 5617 5616 5616 5615
5680 5676 5673 5670 5667 5664 5661 5658 5656 5653 5650 5647 5645 5642 5639 5636 5634 5631 5629 5627 5624 5622 5620 5618 5616 5615 5613 5613 5612 5612 5611 5610 5610 5609 5609 5608 5608 5607
5677 5674 5670 5667 5664 5661 5658 5655 5652 5649 5647 5643 5641 5638 5635 5632 5629 5627 5624 5622 5619 5616 5614 5612 5610 5609 5607 5606 5605 5604 5604 5603 5602 5601 5600 5600 5599 5598
5675 5671 5667 5664 5661 5657 5654 5651 5648 5645 5642 5639 5636 5633 5630 5627 5625 5622 5619 5616 5613 5611 5609 5607 5605 5603 5601 5599 5598 5597 5596 5595 5594 5593 5593 5592 5591 5590